This is the latest recevied weather packets stored in our database for station/object K5OLV. If no packets are shown the sender has not sent any weather packets the latest 10 day(s).
| Time | Temp. | Humidity | Pressure | Rain* | Wind** | Luminosity | Snow |
|---|---|---|---|---|---|---|---|
| 1777551112 | 10° C | 96% | 1010.2 hPa | 0 mm | - | 44 W/m² | - |
| 1777550809 | 10° C | 97% | 1010.4 hPa | 0 mm | - | 41 W/m² | - |
| 1777550505 | 10° C | 97% | 1010.5 hPa | 0 mm | - | 38 W/m² | - |
| 1777550202 | 10° C | 97% | 1010.6 hPa | 0 mm | - | 39 W/m² | - |
| 1777549898 | 10° C | 97% | 1010.3 hPa | 0 mm | - | 39 W/m² | - |
| 1777549594 | 10° C | 97% | 1010.3 hPa | 0 mm | - | 32 W/m² | - |
| 1777549290 | 10° C | 97% | 1010.1 hPa | 0 mm | - | 30 W/m² | - |
| 1777548987 | 10° C | 97% | 1009.7 hPa | 0 mm | - | 28 W/m² | - |
| 1777548684 | 10° C | 97% | 1009.7 hPa | 0 mm | - | 25 W/m² | - |
| 1777548381 | 10° C | 97% | 1009.8 hPa | 0 mm | - | 20 W/m² | - |
| 1777548078 | 10.56° C | 97% | 1009.4 hPa | 0 mm | - | 17 W/m² | - |
| 1777547774 | 10.56° C | 97% | 1009.4 hPa | 0 mm | - | 13 W/m² | - |
| 1777547470 | 10.56° C | 97% | 1009.3 hPa | 0 mm | - | 11 W/m² | - |
| 1777547168 | 10.56° C | 97% | 1009.3 hPa | 0 mm | - | 7 W/m² | - |
| 1777546865 | 10.56° C | 97% | 1009.3 hPa | 0 mm | - | 4 W/m² | - |
| 1777546562 | 10.56° C | 97% | 1009.2 hPa | 0 mm | - | 2 W/m² | - |
| 1777546258 | 10.56° C | 97% | 1008.9 hPa | 0 mm | - | 0 W/m² | - |
| 1777545955 | 10.56° C | 97% | 1009.2 hPa | 0 mm | - | 0 W/m² | - |
| 1777545651 | 11.11° C | 97% | 1009.1 hPa | 0 mm | - | 0 W/m² | - |
| 1777545349 | 11.11° C | 97% | 1009 hPa | 0 mm | - | 0 W/m² | - |
| 1777545046 | 11.11° C | 97% | 1009.1 hPa | 0 mm | - | 0 W/m² | - |
| 1777544743 | 11.11° C | 97% | 1008.9 hPa | 0 mm | - | 0 W/m² | - |
| 1777544438 | 11.11° C | 97% | 1009.2 hPa | 0 mm | - | 0 W/m² | - |
| 1777544134 | 11.67° C | 97% | 1009.4 hPa | 0 mm | - | 0 W/m² | - |
| 1777543832 | 11.67° C | 97% | 1009.3 hPa | 0 mm | - | 0 W/m² | - |
* Rain latest hour (hover to see other rain measurements)
** Current wind speed in m/s (hover to see current wind gust speed)